DateTimeUTC,F1_A11,F1_S11,BsB_S11,BsG_S11,BsR_S11,BbsB_S11,BbsG_S11,BbsR_S11,BaB_A11,BaG_A11,BaR_A11,Tu_S11,T_S11,Uu_S11,U_S11,P_S11,T1_A11
2021-07-28T01:00:00Z,00000200,20000000,,,,,,,-000.14,0000.08,-000.30,19.5,26.0,16.5,11.1,0687.5,31.1
2021-07-28T01:01:00Z,00000200,20000000,,,,,,,0000.01,-000.17,0000.08,19.5,26.0,16.5,11.1,0687.5,31.1
2021-07-28T01:02:00Z,00000200,20000000,,,,,,,0000.05,0000.04,-000.35,19.5,26.0,16.5,11.1,0687.5,31.1
2021-07-28T01:03:00Z,00000200,60000000,,,,,,,0000.08,-000.07,0000.18,19.5,26.1,16.6,11.1,0687.5,31.1
2021-07-28T01:04:00Z,00000200,40000000,0004.11,0002.81,0001.41,0000.81,0000.76,0000.07,0000.36,0000.09,0000.35,19.6,25.9,15.9,10.9,0688.5,31.1
2021-07-28T01:05:00Z,00000200,00000000,0003.53,0002.46,0001.59,0001.09,0000.63,0000.04,0000.29,0000.66,0000.22,19.7,25.8,15.8,10.9,0688.6,31.1
2021-07-28T01:06:00Z,00000200,00000000,0003.61,0002.72,0001.76,0000.89,0000.54,0000.41,0002.94,0002.43,0001.93,19.7,25.8,15.8,10.9,0688.5,31.1
2021-07-28T01:07:00Z,00000200,00000000,0003.71,0002.79,0001.64,0000.64,0000.54,-000.01,0005.07,0004.72,0003.51,19.7,25.8,15.9,11.0,0688.5,31.1
2021-07-28T01:08:00Z,00000200,00000000,0003.64,0002.42,0001.77,0000.69,0000.55,-000.04,0002.43,0002.28,0001.81,19.7,25.8,16.0,11.0,0688.5,31.1
2021-07-28T01:09:00Z,00000200,00000000,0004.41,0003.03,0001.88,0001.26,0000.58,0000.16,0017.15,0015.64,0012.00,19.7,25.8,16.0,11.0,0688.5,31.1
2021-07-28T01:10:00Z,00000200,00000000,0004.47,0003.41,0002.14,0000.92,0000.61,0000.21,0028.62,0025.82,0019.56,19.7,25.8,16.2,11.2,0688.5,31.1
2021-07-28T01:11:00Z,00000200,00000000,0003.66,0002.98,0001.87,0001.42,0000.66,0000.05,0008.80,0007.79,0005.83,19.7,25.8,16.2,11.2,0688.5,31.1
2021-07-28T01:12:00Z,00000200,00000000,0003.12,0002.50,0001.84,0001.17,0000.35,0000.13,0001.77,0001.83,0001.67,19.7,25.8,16.1,11.1,0688.5,31.1
2021-07-28T01:13:00Z,00000200,00000000,0003.16,0002.98,0001.76,0000.52,0000.54,-000.01,0000.89,0000.60,0000.38,19.7,25.8,16.1,11.1,0688.5,31.1
2021-07-28T01:14:00Z,00000200,00000000,0003.11,0002.38,0001.94,0000.59,0000.45,0000.27,0000.35,0000.19,0000.14,19.7,25.8,16.0,11.1,0688.6,31.1
2021-07-28T01:15:00Z,00000200,00000000,0003.07,0002.83,0002.06,0000.81,0000.62,0000.30,0000.38,0000.82,0000.93,19.7,25.7,16.0,11.0,0688.6,31.1
2021-07-28T01:16:00Z,00000200,00000000,0004.08,0003.23,0002.14,0001.30,0000.56,0000.08,0000.77,0000.61,0000.02,19.7,25.8,15.9,11.0,0688.6,31.1
2021-07-28T01:17:00Z,00000200,00000000,0003.72,0003.13,0002.24,0001.17,0000.60,0000.11,0000.46,0000.16,0000.47,19.7,25.7,16.0,11.0,0688.6,31.1
2021-07-28T01:18:00Z,00000200,00000000,0003.28,0003.18,0002.05,0000.86,0000.30,-000.01,0000.68,0000.51,0000.17,19.6,25.8,16.0,11.1,0688.6,31.1
2021-07-28T01:19:00Z,00000200,00000000,0003.52,0003.10,0002.36,0000.68,0000.47,0000.31,0000.63,0000.55,0000.74,19.7,25.8,16.0,11.0,0688.6,31.1
2021-07-28T01:20:00Z,00000200,00000000,0003.05,0003.36,0002.05,0000.91,0000.48,0000.42,0001.05,0001.10,0000.87,19.6,25.7,15.9,11.0,0688.6,31.1
2021-07-28T01:21:00Z,00000200,00000000,0003.82,0003.09,0001.86,0000.87,0000.64,-000.24,0002.49,0002.39,0001.67,19.7,25.7,15.9,11.0,0688.5,31.1
2021-07-28T01:22:00Z,00000200,00000000,0004.25,0003.46,0002.67,0000.94,0000.65,0000.17,0011.25,0009.75,0007.51,19.7,25.7,15.9,11.0,0688.5,31.1
2021-07-28T01:23:00Z,00000200,00000000,0004.61,0003.05,0002.05,0001.03,0000.57,0000.20,0003.69,0003.83,0002.49,19.7,25.7,16.0,11.0,0688.5,31.1
2021-07-28T01:24:00Z,00000200,00000000,0004.92,0003.08,0001.90,0001.08,0000.55,0000.08,0004.29,0003.44,0003.50,19.7,25.7,15.9,11.0,0688.5,31.1
2021-07-28T01:25:00Z,00000200,00000000,0003.60,0003.11,0002.13,0000.97,0000.37,0000.05,0000.84,0000.92,0000.34,19.7,25.7,15.9,11.0,0688.6,31.1
2021-07-28T01:26:00Z,00000200,00000000,0004.18,0003.48,0002.20,0000.80,0000.60,0000.13,0004.25,0003.82,0003.07,19.6,25.7,15.9,11.0,0688.6,31.1
2021-07-28T01:27:00Z,00000200,00000000,0004.83,0003.49,0002.19,0000.53,0000.65,0000.15,0001.63,0001.78,0000.87,19.7,25.7,16.0,11.1,0688.5,31.1
2021-07-28T01:28:00Z,00000200,00000000,0004.19,0003.41,0002.45,0000.50,0000.46,0000.28,0000.59,0000.42,0000.68,19.7,25.7,15.9,11.0,0688.5,31.1
2021-07-28T01:29:00Z,00000200,00000000,0004.34,0003.25,0002.33,0000.90,0000.55,-000.11,0001.54,0001.45,0000.93,19.6,25.7,15.9,11.0,0688.5,31.1
2021-07-28T01:30:00Z,00000200,00000000,0004.86,0003.60,0002.22,0001.06,0000.51,0000.28,0002.08,0001.41,0001.35,19.7,25.7,16.1,11.1,0688.5,31.1
2021-07-28T01:31:00Z,00000200,00000000,0004.94,0003.55,0002.27,0000.55,0000.80,-000.05,0000.57,0000.70,0000.38,19.7,25.7,15.9,11.0,0688.6,31.1
2021-07-28T01:32:00Z,00000200,00000000,0004.84,0003.67,0002.33,0001.18,0000.35,0000.03,0000.82,0000.87,0000.67,19.6,25.7,15.8,11.0,0688.6,31.1
2021-07-28T01:33:00Z,00000200,00000000,0004.88,0003.68,0002.33,0000.75,0000.59,0000.09,0000.59,0000.63,0000.72,19.7,25.7,15.8,11.0,0688.6,31.1
2021-07-28T01:34:00Z,00000200,00000000,0005.26,0003.93,0002.54,0000.65,0000.49,0000.40,0000.60,0000.92,0000.28,19.6,25.7,15.9,11.1,0688.6,31.1
2021-07-28T01:35:00Z,00000200,00000000,0004.18,0003.80,0002.66,0000.81,0000.70,0000.08,0000.96,0000.41,0000.63,19.6,25.7,15.8,11.0,0688.6,31.1
2021-07-28T01:36:00Z,00000200,00000000,0004.90,0003.71,0002.72,0000.84,0000.89,-000.02,0000.56,0000.75,0000.79,19.7,25.7,15.7,10.9,0688.6,31.1
2021-07-28T01:37:00Z,00000200,00000000,0005.14,0003.49,0002.32,0000.95,0000.61,0000.27,0000.71,0000.21,0000.34,19.6,25.7,15.8,11.0,0688.6,31.1
2021-07-28T01:38:00Z,00000200,00000000,0005.91,0003.75,0002.54,0000.77,0000.56,0000.01,0008.20,0008.02,0005.76,19.7,25.7,15.8,10.9,0688.6,31.1
2021-07-28T01:39:00Z,00000200,00000000,0005.21,0004.23,0002.66,0001.61,0000.65,0000.34,0007.00,0006.06,0004.48,19.6,25.7,15.8,11.0,0688.6,31.1
2021-07-28T01:40:00Z,00000200,00000000,0004.65,0003.94,0002.56,0001.12,0000.44,0000.52,0002.39,0002.01,0002.02,19.6,25.7,15.8,11.0,0688.6,31.1
2021-07-28T01:41:00Z,00000200,00000000,0004.94,0003.54,0002.11,0000.97,0000.85,-000.07,0001.02,0001.12,0000.56,19.7,25.7,15.9,11.0,0688.6,31.1
2021-07-28T01:42:00Z,00000200,00000000,0004.61,0003.52,0002.05,0001.09,0000.49,-000.08,0003.41,0003.04,0002.45,19.6,25.7,15.8,11.0,0688.6,31.1
2021-07-28T01:43:00Z,00000200,00000000,0004.69,0003.88,0002.45,0000.39,0000.42,0000.39,0001.34,0000.80,0000.76,19.6,25.7,15.8,10.9,0688.6,31.1
2021-07-28T01:44:00Z,00000200,00000000,0004.51,0004.23,0002.90,0000.93,0000.52,-000.09,0000.92,0000.92,0000.72,19.6,25.7,15.8,11.0,0688.6,31.1
2021-07-28T01:45:00Z,00000200,00000000,0004.62,0003.83,0002.56,0000.50,0000.60,0000.26,0000.55,0000.66,0000.49,19.6,25.7,15.9,11.0,0688.6,31.1
2021-07-28T01:46:00Z,00000200,00000000,0004.60,0003.90,0002.35,0000.58,0000.57,0000.16,0002.02,0001.85,0001.35,19.6,25.7,15.8,10.9,0688.6,31.1
2021-07-28T01:47:00Z,00000200,00000000,0005.06,0003.94,0002.78,0001.39,0000.41,0000.06,0009.16,0008.23,0006.20,19.6,25.7,15.9,11.0,0688.6,31.1
2021-07-28T01:48:00Z,00000200,00000000,0005.17,0004.34,0002.62,0000.78,0000.74,0000.06,0003.04,0002.82,0002.65,19.6,25.7,16.0,11.1,0688.6,31.1
2021-07-28T01:49:00Z,00000200,00000000,0005.01,0003.67,0002.95,0000.94,0000.70,0000.33,0002.66,0002.69,0001.53,19.6,25.7,15.9,11.0,0688.6,31.1
2021-07-28T01:50:00Z,00000200,00000000,0004.93,0003.69,0002.34,0000.54,0000.36,0000.09,0001.00,0000.43,0000.57,19.6,25.7,15.9,11.0,0688.5,31.1
2021-07-28T01:51:00Z,00000200,00000000,0004.92,0003.85,0002.44,0001.16,0000.92,0000.22,0000.47,0001.09,0000.60,19.6,25.7,15.8,10.9,0688.5,31.1
2021-07-28T01:52:00Z,00000200,00000000,0004.39,0003.67,0002.50,0000.62,0000.49,0000.04,0001.92,0001.21,0000.82,19.6,25.7,15.8,10.9,0688.6,31.1
2021-07-28T01:53:00Z,00000200,00000000,0004.04,0002.96,0002.28,0000.76,0000.53,0000.07,0000.65,0000.64,0001.12,19.6,25.7,15.8,10.9,0688.6,31.1
2021-07-28T01:54:00Z,00000200,00000000,0004.35,0003.45,0002.29,0000.64,0000.70,-000.24,0000.72,0000.59,0000.05,19.6,25.7,15.8,10.9,0688.6,31.1
2021-07-28T01:55:00Z,00000200,00000000,0004.57,0003.77,0002.10,0000.46,0000.71,-000.09,0001.74,0001.86,0001.18,19.6,25.6,15.9,11.0,0688.6,31.1
2021-07-28T01:56:00Z,00000200,00000000,0004.73,0003.78,0002.49,0001.26,0000.84,0000.24,0002.27,0001.83,0001.79,19.6,25.6,15.8,11.0,0688.6,31.1
2021-07-28T01:57:00Z,00000200,40000000,,,,,,,0000.55,0000.36,0000.14,19.6,25.7,15.5,10.7,0688.6,31.1
2021-07-28T01:58:00Z,00000200,60000000,,,,,,,-000.48,-000.01,-000.00,19.4,25.8,15.9,10.7,0687.6,31.1
2021-07-28T01:59:00Z,00000200,20000000,,,,,,,0000.27,0000.01,-000.18,19.4,25.9,15.9,10.7,0687.5,31.1
